ESST

Details ICAO ESST (TYF)
Name TORSBY
Region Sweden
Timezone Europe/Stockholm (UTC+2.0)
Plans Departing 6
Arriving 3
Stats Elevation 393 ft / 120 m (AMSL)
Location 60.157373° 12.991474°
Runways 1
Magnetic Variation 4.120° E
Sunrise 2017-08-19 03:32:51 UTC / 2017-08-19 05:32:51 Local
Sunset 2017-08-19 18:53:22 UTC / 2017-08-19 20:53:22 Local
Advertisement - Login to hide

Runways

ID Width Length Bearing (true) Bearing (mag) Surface Threshold Offset Overrun Length
16 95 ft / 29 m 5,208 ft / 1,587 m 157.74° 153.62° Asphalt 367 ft / 112 m 0 ft / 0 m
34 95 ft / 29 m 5,208 ft / 1,587 m 337.75° 333.63° Asphalt 0 ft / 0 m 0 ft / 0 m

Approach Navaids

Runway Type Ident Frequency Range Bearing (true) Bearing (mag) Slope Elevation
16 Localiser NST 108.70 MHz 18 nm / 33 km 157.77° 153.65° - 393 ft / 120 m (AMSL)
16 DME NST 108.70 MHz 18 nm / 33 km - - - 397 ft / 121 m (AMSL)
34 Localiser ST 110.90 MHz 18 nm / 33 km 337.74° 333.62° - 393 ft / 120 m (AMSL)

Map

Weather


0- 5 10 15 20 25 30 35+ Temperature / ° C

Clouds and Precipitation
Forecast for 2017-08-19 06:00 UTC. Updated a minute ago

Ground ~20,000 ft ~40,000 ft Winds

METAR

ESST 190120Z AUTO 00000KT 6000 FEW019/// 14/14 Q1005

TAF

Not found

Frequencies

Tower 122.05 MHz AFIS
Warning: Do not use this data for real-world aviation or navigation. No guarantee of current accuracy is given.